This demonstration page uses our WeatherBlox Daily Observations layout. Learn more.

Left ArrowRight Arrow

44.89941, -97.11507

Hourly Observations for September 14, 2018

Temp ( °F °C ) Dew Point ( °F °C ) Humidity (%) Winds ( mph kmh ) Pressure ( in mb ) Visibility ( mi km ) Precip ( " mm )
12:53 am 00:53 Clear 68 20 68 20 100 100 SSE 8 13 29.90 1013 10 16 0.00 0.00
1:53 am 01:53 Partly Cloudy 68 20 67 19.4 96 96 SSE 6 9 29.91 1013 10 16 0.00 0.00
2:53 am 02:53 Mostly Cloudy 68 20 68 20 100 100 SSE 8 13 29.93 1013 10 16 0.00 0.00
3:53 am 03:53 Clear 67 19.4 67 19.4 100 100 SSE 7 11 29.94 1014 10 16 0.00 0.00
4:53 am 04:53 Mostly Cloudy 67 19.4 67 19.4 100 100 SE 5 7 29.95 1014 9 14 0.00 0.00
5:53 am 05:53 Mostly Clear 66 18.9 66 18.9 100 100 SSE 3 6 29.95 1014 7 11 0.00 0.00
6:19 am 06:19 Mostly Clear with Mist and Fog 64 17.8 64 17.8 100 100 ENE 5 7 29.94 1014 4 6 0.00 0.00
6:32 am 06:32 Mostly Cloudy with Mist and Fog 67 19.4 67 19.4 100 100 Calm 29.94 1014 6 10 0.00 0.00
6:51 am 06:51 Cloudy 66 19 66 19 100 100 E 5 7 29.94 1014 8 13 0.00 0.00
6:53 am 06:53 Cloudy 67 19.4 67 19.4 100 100 E 5 7 29.97 1015 8 13 0.00 0.00
7:53 am 07:53 Cloudy 62 16.7 62 16.7 100 100 ENE 10 17 29.99 1016 10 16 0.00 0.00
8:27 am 08:27 Cloudy with Mist and Fog 61 16.1 61 16.1 100 100 ENE 7 11 30.00 1016 3 5 0.00 0.00
8:37 am 08:37 Cloudy with Mist and Fog 61 16.1 61 16.1 100 100 ENE 8 13 30.00 1016 2 3 0.00 0.00
8:49 am 08:49 Cloudy with Mist and Fog 63 17 63 17 100 100 ENE 7 11 29.97 1015 4 6 0.00 0.00
8:53 am 08:53 Cloudy with Mist and Fog 62 16.7 62 16.7 100 100 ENE 6 9 30.01 1016 4 6 0.00 0.00
9:25 am 09:25 Cloudy 63 17.2 63 17.2 100 100 ENE 7 11 29.97 1015 10 16 0.00 0.00
9:53 am 09:53 Cloudy 64 17.8 63 17.2 96 96 ENE 8 13 30.00 1016 10 16 0.00 0.00
10:32 am 10:32 Cloudy 62 16.7 62 16.7 100 100 ENE 7 11 29.97 1015 10 16 0.00 0.00
10:53 am 10:53 Cloudy 62 16.7 62 16.7 100 100 ENE 9 15 30.02 1017 10 16 0.00 0.00
11:15 am 11:15 Cloudy 63 17.2 62 16.7 97 97 NE 8 13 29.97 1015 10 16 0.00 0.00
11:53 am 11:53 Cloudy with Mist and Fog 63 17.2 62 16.7 97 97 ENE 6 9 30.02 1017 4 6 0.00 0.00
12:53 pm 12:53 Cloudy 65 18.3 63 17.2 93 93 ENE 7 11 30.01 1016 10 16 0.00 0.00
1:08 pm 13:08 Cloudy 66 18.9 63 17.2 90 90 ENE 6 9 29.97 1015 10 16 0.00 0.00
1:44 pm 13:44 Cloudy 67 19.4 64 17.8 91 91 ENE 7 11 29.97 1015 10 16 0.00 0.00
1:53 pm 13:53 Cloudy 68 20 64 17.8 87 87 E 6 9 30.01 1016 10 16 0.00 0.00
2:36 pm 14:36 Cloudy 70 21.1 65 18.3 84 84 E 8 13 29.94 1014 10 16 0.00 0.00
2:53 pm 14:53 Cloudy 70 21.1 66 18.9 87 87 E 6 9 29.99 1016 10 16 0.00 0.00
3:06 pm 15:06 Cloudy 70 21.1 66 18.9 87 87 E 7 11 29.91 1013 10 16 0.00 0.00
3:53 pm 15:53 Cloudy 72 22.2 67 19.4 84 84 ENE 6 9 29.98 1015 10 16 0.00 0.00
4:29 pm 16:29 Cloudy 72 22.2 68 20 87 87 E 9 15 29.91 1013 10 16 0.00 0.00
4:53 pm 16:53 Cloudy 73 22.8 68 20 84 84 E 9 15 29.97 1015 10 16 0.00 0.00
5:13 pm 17:13 Cloudy 72 22.2 68 20 87 87 E 8 13 29.91 1013 10 16 0.00 0.00
5:53 pm 17:53 Cloudy 72 22.2 68 20 87 87 E 9 15 29.97 1015 10 16 0.00 0.00
6:53 pm 18:53 Cloudy 72 22.2 68 20 87 87 VRB 3 6 29.98 1015 10 16 0.00 0.00
7:24 pm 19:24 Cloudy 71 21.7 68 20 90 90 E 5 7 29.91 1013 10 16 0.00 0.00
7:53 pm 19:53 Cloudy 71 21.7 68 20 90 90 E 5 7 29.99 1016 10 16 0.00 0.00
8:53 pm 20:53 Cloudy 71 21.7 67 19.4 87 87 E 5 7 30.00 1016 10 16 0.00 0.00
9:53 pm 21:53 Mostly Cloudy 71 21.7 67 19.4 87 87 E 6 9 29.99 1016 10 16 0.00 0.00
10:53 pm 22:53 Cloudy 71 21.7 68 20 90 90 Calm 29.99 1016 10 16 0.00 0.00
11:53 pm 23:53 Mostly Cloudy 70 21.1 68 20 93 93 E 5 7 29.99 1016 10 16 0.00 0.00

Powered by AerisWeather